{"data":{"norad_id":54756,"intl_designator":"2022-174B","name":"O3B MPOWER F2","alt_names":[],"object_type":"PAYLOAD","status":"ACTIVE","operator":null,"country":"O3B","launch_date":"2022-12-16","launch_site_code":"AFETR","launch_vehicle":null,"mission":null,"orbit_class":"UNKNOWN","rcs_meters":null,"size_class":null,"mass_kg":null,"dimensions":null,"purposes":["comms"],"wikipedia_slug":null,"has_3d_model":false,"image_url":null,"decayed_at":null,"tle_current":{"epoch":"2026-05-24T22:08:51.734400Z","epoch_age_seconds":81432,"freshness":"FRESH","line1":"1 54756U 22174B   26144.92282100 -.00000024  00000+0  00000+0 0  9999","line2":"2 54756   0.0516 342.8130 0005927  77.1252 300.1199  5.00115194 64288","mean_motion":5.00115194,"eccentricity":0.0005927,"inclination_deg":0.0516,"raan_deg":342.813,"arg_perigee_deg":77.1252,"mean_anomaly_deg":300.1199,"bstar":0,"rev_number":6428,"period_min":287.93366353912,"perigee_km":8057.3351316688,"apogee_km":8074.4570885176,"semimajor_km":14444.033110093,"source":"CELESTRAK","updated_at":"2026-05-25T13:38:14.518080Z"}}}